AAL2040 KSYR-KBOS

Flight info

Callsign AAL2040
Flight time 0h 48m
Altitude 33000
Route LAMMS PONCT JFUND2
Aircraft A319/M-SDE3FGHIRWY/LB1

Departure

Time 2026-04-27 20:45
Airport Syracuse Hancock International Airport (KSYR)

Arrival

Time 2026-04-27 21:34
Airport Boston Logan International Airport (KBOS)
Time Latitude Longitude Altitude Speed Heading
2026-04-27 20:26 43.11255 -76.11005 422 ft 0 kts 357°
2026-04-27 20:37 43.11252 -76.11005 423 ft 2 kts 358°
2026-04-27 20:37 43.11237 -76.11004 422 ft 2 kts 357°
2026-04-27 20:37 43.11222 -76.11003 422 ft 2 kts 358°
2026-04-27 20:37 43.11207 -76.11009 422 ft 2 kts 37°
2026-04-27 20:38 43.11200 -76.11019 422 ft 0 kts 58°
2026-04-27 20:38 43.11196 -76.11028 422 ft 0 kts 62°
2026-04-27 20:40 43.11198 -76.11024 422 ft 1 kts 71°
2026-04-27 20:41 43.11200 -76.10986 423 ft 4 kts 86°
2026-04-27 20:41 43.11203 -76.10933 422 ft 6 kts 87°
2026-04-27 20:41 43.11200 -76.10862 423 ft 10 kts 112°
2026-04-27 20:41 43.11131 -76.10822 422 ft 12 kts 178°
2026-04-27 20:42 43.11042 -76.10819 422 ft 13 kts 189°
2026-04-27 20:42 43.11000 -76.10926 423 ft 17 kts 267°
2026-04-27 20:42 43.10994 -76.11134 423 ft 24 kts 268°
2026-04-27 20:42 43.10986 -76.11362 423 ft 23 kts 268°
2026-04-27 20:43 43.10979 -76.11572 426 ft 21 kts 268°
2026-04-27 20:43 43.10973 -76.11774 426 ft 21 kts 266°
2026-04-27 20:43 43.10965 -76.11987 426 ft 26 kts 268°
2026-04-27 20:43 43.10957 -76.12234 427 ft 25 kts 268°
2026-04-27 20:44 43.10950 -76.12467 426 ft 21 kts 266°
2026-04-27 20:44 43.10936 -76.12608 426 ft 9 kts 238°
2026-04-27 20:44 43.10879 -76.12627 426 ft 13 kts 161°
2026-04-27 20:44 43.10822 -76.12544 426 ft 11 kts 91°
2026-04-27 20:45 43.10832 -76.12244 428 ft 64 kts 87°
2026-04-27 20:45 43.10863 -76.11302 423 ft 130 kts 86°
2026-04-27 20:45 43.10918 -76.09877 651 ft 158 kts 87°
2026-04-27 20:45 43.10965 -76.08375 1216 ft 162 kts 86°
2026-04-27 20:46 43.11033 -76.06827 1864 ft 164 kts 86°
2026-04-27 20:46 43.11091 -76.05296 2458 ft 163 kts 88°
2026-04-27 20:46 43.11135 -76.03713 2841 ft 175 kts 89°
2026-04-27 20:46 43.11200 -76.01985 3211 ft 190 kts 88°
2026-04-27 20:47 43.11285 -76.00115 3612 ft 206 kts 87°
2026-04-27 20:47 43.11410 -75.98022 3867 ft 233 kts 86°
2026-04-27 20:47 43.11557 -75.95706 4094 ft 253 kts 86°
2026-04-27 20:47 43.11683 -75.93282 4066 ft 260 kts 88°
2026-04-27 20:48 43.11670 -75.90795 4557 ft 265 kts 98°
2026-04-27 20:48 43.11497 -75.89170 5218 ft 263 kts 100°
2026-04-27 20:48 43.11077 -75.85889 6489 ft 265 kts 101°
2026-04-27 20:48 43.10758 -75.83380 7370 ft 268 kts 100°
2026-04-27 20:49 43.10449 -75.80855 8232 ft 272 kts 100°
2026-04-27 20:49 43.10144 -75.78281 9043 ft 276 kts 99°
2026-04-27 20:49 43.09840 -75.75676 9798 ft 281 kts 98°
2026-04-27 20:49 43.09531 -75.72993 10526 ft 288 kts 98°
2026-04-27 20:50 43.09211 -75.70195 10942 ft 305 kts 98°
2026-04-27 20:50 43.08881 -75.67255 11452 ft 317 kts 97°
2026-04-27 20:50 43.08538 -75.64229 12153 ft 322 kts 97°
2026-04-27 20:50 43.08191 -75.61193 12889 ft 324 kts 96°
2026-04-27 20:51 43.07841 -75.58105 13565 ft 329 kts 96°
2026-04-27 20:51 43.07489 -75.55026 14207 ft 333 kts 96°
2026-04-27 20:51 43.07132 -75.51866 14864 ft 337 kts 96°
2026-04-27 20:51 43.06768 -75.48688 15509 ft 341 kts 96°
2026-04-27 20:52 43.06403 -75.45521 16146 ft 345 kts 95°
2026-04-27 20:52 43.06033 -75.42278 16766 ft 348 kts 95°
2026-04-27 20:52 43.05655 -75.39003 17370 ft 352 kts 95°
2026-04-27 20:52 43.05268 -75.35645 17970 ft 356 kts 95°
2026-04-27 20:53 43.04881 -75.32300 18567 ft 360 kts 95°
2026-04-27 20:53 43.04488 -75.28919 19152 ft 364 kts 95°
2026-04-27 20:53 43.04094 -75.25528 19701 ft 368 kts 95°
2026-04-27 20:53 43.03689 -75.22053 20246 ft 372 kts 94°
2026-04-27 20:54 43.02863 -75.15016 21298 ft 380 kts 94°
2026-04-27 20:54 43.02445 -75.11449 21834 ft 383 kts 94°
2026-04-27 20:54 43.02021 -75.07849 22334 ft 387 kts 94°
2026-04-27 20:55 43.01588 -75.04197 22804 ft 392 kts 94°
2026-04-27 20:55 43.01149 -75.00497 23281 ft 396 kts 94°
2026-04-27 20:55 43.00714 -74.96818 23737 ft 400 kts 94°
2026-04-27 20:55 43.00260 -74.93030 24218 ft 403 kts 93°
2026-04-27 20:56 42.99808 -74.89256 24692 ft 406 kts 93°
2026-04-27 20:56 42.99351 -74.85444 25161 ft 409 kts 93°
2026-04-27 20:56 42.98891 -74.81619 25644 ft 412 kts 93°
2026-04-27 20:56 42.98428 -74.77784 26054 ft 415 kts 93°
2026-04-27 20:57 42.97953 -74.73862 26477 ft 419 kts 93°
2026-04-27 20:57 42.97477 -74.69938 26907 ft 422 kts 93°
2026-04-27 20:57 42.96995 -74.66005 27302 ft 425 kts 93°
2026-04-27 20:57 42.96511 -74.62028 27715 ft 428 kts 93°
2026-04-27 20:58 42.96017 -74.57990 28091 ft 431 kts 93°
2026-04-27 20:58 42.95522 -74.53964 28511 ft 434 kts 93°
2026-04-27 20:58 42.95020 -74.49892 28901 ft 437 kts 93°
2026-04-27 20:58 42.94517 -74.45822 29249 ft 440 kts 93°
2026-04-27 20:59 42.94001 -74.41684 29601 ft 443 kts 93°
2026-04-27 20:59 42.93488 -74.37537 29944 ft 446 kts 93°
2026-04-27 20:59 42.92962 -74.33323 30318 ft 448 kts 94°
2026-04-27 20:59 42.92438 -74.29154 30738 ft 449 kts 93°
2026-04-27 21:00 42.91910 -74.24974 31203 ft 448 kts 94°
2026-04-27 21:00 42.91387 -74.20830 31643 ft 447 kts 93°
2026-04-27 21:00 42.90860 -74.16656 31975 ft 450 kts 93°
2026-04-27 21:00 42.90326 -74.12421 32274 ft 452 kts 93°
2026-04-27 21:01 42.89791 -74.08216 32600 ft 454 kts 93°
2026-04-27 21:01 42.89250 -74.03974 32931 ft 455 kts 93°
2026-04-27 21:01 42.88702 -73.99689 33207 ft 457 kts 93°
2026-04-27 21:02 42.87607 -73.91164 33233 ft 458 kts 93°
2026-04-27 21:02 42.86502 -73.82626 33233 ft 458 kts 93°
2026-04-27 21:03 42.85385 -73.74051 33236 ft 458 kts 93°
2026-04-27 21:03 42.84271 -73.65581 33236 ft 457 kts 93°
2026-04-27 21:04 42.83136 -73.57014 33243 ft 457 kts 92°
2026-04-27 21:04 42.82004 -73.48489 33245 ft 456 kts 92°
2026-04-27 21:05 42.80879 -73.40022 33248 ft 456 kts 92°
2026-04-27 21:05 42.79742 -73.31545 33182 ft 452 kts 93°
2026-04-27 21:05 42.79170 -73.27303 32551 ft 454 kts 93°
2026-04-27 21:06 42.78603 -73.23063 31483 ft 464 kts 93°
2026-04-27 21:06 42.78012 -73.18667 30732 ft 465 kts 93°
2026-04-27 21:06 42.77432 -73.14394 30105 ft 463 kts 93°
2026-04-27 21:06 42.76842 -73.10087 29612 ft 457 kts 94°
2026-04-27 21:07 42.76259 -73.05852 29224 ft 450 kts 93°
2026-04-27 21:07 42.75682 -73.01662 28778 ft 444 kts 93°
2026-04-27 21:07 42.75122 -72.97594 28362 ft 437 kts 93°
2026-04-27 21:07 42.74560 -72.93514 27918 ft 432 kts 93°
2026-04-27 21:08 42.74012 -72.89537 27489 ft 426 kts 93°
2026-04-27 21:08 42.73470 -72.85619 27044 ft 421 kts 93°
2026-04-27 21:08 42.72931 -72.81738 26640 ft 416 kts 93°
2026-04-27 21:08 42.72402 -72.77924 26209 ft 411 kts 93°
2026-04-27 21:09 42.71876 -72.74146 25810 ft 406 kts 93°
2026-04-27 21:09 42.71354 -72.70418 25393 ft 401 kts 93°
2026-04-27 21:09 42.70831 -72.66698 24978 ft 397 kts 93°
2026-04-27 21:09 42.70316 -72.63020 24538 ft 393 kts 93°
2026-04-27 21:10 42.69807 -72.59397 24143 ft 389 kts 93°
2026-04-27 21:10 42.69291 -72.55749 23726 ft 385 kts 93°
2026-04-27 21:10 42.68784 -72.52170 23316 ft 382 kts 93°
2026-04-27 21:10 42.68285 -72.48634 22931 ft 378 kts 93°
2026-04-27 21:11 42.67792 -72.45155 22540 ft 375 kts 94°
2026-04-27 21:11 42.67298 -72.41692 22155 ft 372 kts 93°
2026-04-27 21:11 42.66797 -72.38176 21759 ft 369 kts 94°
2026-04-27 21:11 42.66308 -72.34759 21357 ft 367 kts 95°
2026-04-27 21:12 42.65819 -72.31347 20960 ft 364 kts 94°
2026-04-27 21:12 42.65340 -72.28007 20584 ft 362 kts 95°
2026-04-27 21:12 42.64861 -72.24674 20193 ft 360 kts 95°
2026-04-27 21:12 42.64375 -72.21321 19792 ft 358 kts 95°
2026-04-27 21:13 42.63899 -72.18034 19404 ft 356 kts 95°
2026-04-27 21:13 42.63425 -72.14758 19018 ft 354 kts 95°
2026-04-27 21:13 42.62956 -72.11531 18654 ft 353 kts 95°
2026-04-27 21:13 42.62484 -72.08278 18257 ft 351 kts 96°
2026-04-27 21:14 42.62006 -72.05013 17890 ft 350 kts 96°
2026-04-27 21:14 42.61539 -72.01807 17486 ft 349 kts 96°
2026-04-27 21:14 42.61069 -71.98601 17054 ft 348 kts 96°
2026-04-27 21:14 42.60598 -71.95390 16641 ft 345 kts 96°
2026-04-27 21:15 42.60129 -71.92201 16273 ft 344 kts 96°
2026-04-27 21:15 42.59660 -71.89027 15845 ft 343 kts 96°
2026-04-27 21:15 42.59199 -71.85906 15447 ft 341 kts 97°
2026-04-27 21:15 42.58732 -71.82763 15049 ft 339 kts 97°
2026-04-27 21:16 42.58255 -71.79627 14646 ft 338 kts 97°
2026-04-27 21:16 42.57770 -71.76553 14247 ft 337 kts 98°
2026-04-27 21:16 42.57277 -71.73447 13838 ft 335 kts 98°
2026-04-27 21:16 42.56786 -71.70358 13433 ft 334 kts 98°
2026-04-27 21:17 42.56300 -71.67284 13023 ft 333 kts 98°
2026-04-27 21:17 42.55820 -71.64270 12616 ft 332 kts 98°
2026-04-27 21:17 42.55338 -71.61236 12204 ft 330 kts 98°
2026-04-27 21:17 42.54804 -71.58200 11864 ft 323 kts 101°
2026-04-27 21:18 42.54217 -71.55340 11828 ft 312 kts 101°
2026-04-27 21:18 42.53635 -71.52544 11670 ft 313 kts 101°
2026-04-27 21:18 42.53045 -71.49696 11268 ft 313 kts 101°
2026-04-27 21:18 42.52456 -71.46858 10868 ft 312 kts 101°
2026-04-27 21:19 42.51873 -71.44052 10486 ft 311 kts 102°
2026-04-27 21:19 42.51291 -71.41260 10171 ft 307 kts 101°
2026-04-27 21:19 42.50716 -71.38510 10007 ft 298 kts 101°
2026-04-27 21:20 42.49656 -71.33333 9941 ft 279 kts 101°
2026-04-27 21:20 42.49155 -71.30808 9949 ft 278 kts 101°
2026-04-27 21:20 42.48651 -71.28256 9828 ft 280 kts 101°
2026-04-27 21:20 42.48149 -71.25724 9441 ft 281 kts 101°
2026-04-27 21:21 42.47638 -71.23168 9081 ft 282 kts 101°
2026-04-27 21:21 42.47129 -71.20629 8737 ft 279 kts 101°
2026-04-27 21:21 42.46625 -71.18114 8383 ft 273 kts 101°
2026-04-27 21:21 42.46179 -71.15642 8046 ft 271 kts 97°
2026-04-27 21:22 42.45890 -71.13146 7717 ft 269 kts 94°
2026-04-27 21:22 42.45664 -71.10668 7390 ft 268 kts 93°
2026-04-27 21:22 42.45440 -71.08181 7173 ft 263 kts 93°
2026-04-27 21:22 42.45220 -71.05760 7102 ft 253 kts 93°
2026-04-27 21:23 42.44899 -71.03462 6970 ft 248 kts 109°
2026-04-27 21:23 42.43778 -71.01720 6964 ft 249 kts 145°
2026-04-27 21:23 42.42170 -71.00715 6984 ft 250 kts 151°
2026-04-27 21:23 42.40568 -70.99729 6985 ft 249 kts 150°
2026-04-27 21:24 42.38992 -70.98714 6981 ft 248 kts 149°
2026-04-27 21:24 42.37434 -70.97686 6979 ft 249 kts 148°
2026-04-27 21:24 42.35878 -70.96651 6978 ft 248 kts 148°
2026-04-27 21:24 42.34314 -70.95607 6974 ft 248 kts 148°
2026-04-27 21:25 42.32727 -70.94550 6954 ft 248 kts 148°
2026-04-27 21:25 42.31114 -70.93749 6727 ft 253 kts 171°
2026-04-27 21:25 42.29336 -70.94096 6415 ft 260 kts 196°
2026-04-27 21:25 42.27640 -70.94892 6101 ft 262 kts 197°
2026-04-27 21:26 42.25913 -70.95705 5660 ft 265 kts 196°
2026-04-27 21:26 42.24163 -70.96496 5206 ft 262 kts 195°
2026-04-27 21:26 42.22463 -70.97242 4758 ft 257 kts 195°
2026-04-27 21:26 42.20776 -70.97970 4308 ft 253 kts 195°
2026-04-27 21:27 42.19092 -70.98692 3860 ft 249 kts 195°
2026-04-27 21:27 42.17467 -70.99390 3419 ft 246 kts 196°
2026-04-27 21:27 42.15859 -71.00121 3051 ft 243 kts 197°
2026-04-27 21:27 42.14420 -71.01221 2953 ft 236 kts 226°
2026-04-27 21:28 42.13626 -71.03122 2959 ft 232 kts 261°
2026-04-27 21:28 42.13711 -71.05241 2972 ft 226 kts 295°
2026-04-27 21:28 42.14611 -71.06891 2974 ft 217 kts 330°
2026-04-27 21:28 42.15986 -71.07639 2990 ft 211 kts 352°
2026-04-27 21:29 42.17446 -71.07990 2976 ft 206 kts 355°
2026-04-27 21:29 42.18845 -71.08240 2969 ft 198 kts
2026-04-27 21:29 42.20193 -71.08133 2974 ft 186 kts 13°
2026-04-27 21:29 42.21453 -71.07723 2897 ft 185 kts 19°
2026-04-27 21:30 42.22683 -71.07196 2644 ft 183 kts 21°
2026-04-27 21:30 42.23888 -71.06626 2390 ft 180 kts 22°
2026-04-27 21:30 42.25048 -71.06063 2157 ft 167 kts 22°
2026-04-27 21:30 42.26146 -71.05527 1926 ft 162 kts 22°
2026-04-27 21:31 42.27240 -71.04994 1706 ft 161 kts 22°
2026-04-27 21:31 42.28325 -71.04467 1488 ft 161 kts 22°
2026-04-27 21:31 42.29375 -71.03964 1250 ft 153 kts 22°
2026-04-27 21:31 42.30362 -71.03482 1069 ft 143 kts 23°
2026-04-27 21:32 42.31314 -71.03025 868 ft 141 kts 22°
2026-04-27 21:32 42.32261 -71.02568 685 ft 140 kts 24°
2026-04-27 21:32 42.33190 -71.02101 500 ft 140 kts 22°
2026-04-27 21:32 42.34107 -71.01657 302 ft 139 kts 22°
2026-04-27 21:33 42.35026 -71.01224 115 ft 137 kts 22°
2026-04-27 21:33 42.35912 -71.00786 18 ft 124 kts 19°
2026-04-27 21:33 42.36566 -71.00471 14 ft 74 kts 20°
2026-04-27 21:33 42.36966 -71.00279 12 ft 55 kts 19°
2026-04-27 21:34 42.37319 -71.00189 12 ft 40 kts 353°
2026-04-27 21:34 42.37473 -71.00228 12 ft 15 kts 348°
2026-04-27 21:34 42.37568 -71.00256 12 ft 12 kts 347°
2026-04-27 21:34 42.37627 -71.00274 12 ft 0 kts 347°
2026-04-27 21:35 42.37711 -71.00301 12 ft 19 kts 344°
2026-04-27 21:35 42.37797 -71.00424 12 ft 18 kts 288°
2026-04-27 21:35 42.37837 -71.00590 12 ft 16 kts 268°
2026-04-27 21:36 42.37758 -71.00682 12 ft 16 kts 199°
2026-04-27 21:36 42.37646 -71.00738 12 ft 17 kts 200°
2026-04-27 21:36 42.37531 -71.00792 12 ft 16 kts 199°
2026-04-27 21:36 42.37441 -71.00835 12 ft 6 kts 201°
2026-04-27 21:37 42.37389 -71.00862 12 ft 18 kts 199°
2026-04-27 21:37 42.37265 -71.00926 12 ft 19 kts 206°
2026-04-27 21:37 42.37138 -71.01009 13 ft 19 kts 206°
2026-04-27 21:37 42.37027 -71.01080 15 ft 15 kts 205°
2026-04-27 21:38 42.36939 -71.01158 16 ft 15 kts 220°
2026-04-27 21:38 42.36858 -71.01253 16 ft 14 kts 220°
2026-04-27 21:38 42.36776 -71.01256 16 ft 13 kts 151°
2026-04-27 21:38 42.36682 -71.01253 16 ft 14 kts 194°
2026-04-27 21:39 42.36586 -71.01292 17 ft 14 kts 200°
2026-04-27 21:39 42.36496 -71.01349 19 ft 14 kts 204°
2026-04-27 21:39 42.36385 -71.01405 19 ft 23 kts 200°
2026-04-27 21:39 42.36226 -71.01482 19 ft 24 kts 200°
2026-04-27 21:40 42.36067 -71.01560 19 ft 24 kts 199°
2026-04-27 21:40 42.35941 -71.01620 20 ft 13 kts 200°
2026-04-27 21:40 42.35905 -71.01728 19 ft 16 kts 280°
2026-04-27 21:40 42.35946 -71.01881 19 ft 18 kts 301°
2026-04-27 21:41 42.36002 -71.02007 19 ft 9 kts 301°
2026-04-27 21:41 42.36044 -71.02055 18 ft 9 kts 346°
2026-04-27 21:41 42.36087 -71.02068 17 ft 3 kts 347°
2026-04-27 21:41 42.36088 -71.02068 17 ft 0 kts 347°
2026-04-27 21:42 42.36102 -71.02072 17 ft 3 kts 347°
2026-04-27 21:42 42.36126 -71.02080 16 ft 0 kts 347°